Coronado, California, United States (92118)
Lat: 32.69N, Lon: 117.18W
Wx Zone: CAZ043
Local Info
Past Weather Observations for Today

NOTE: This archive is for the closest National Weather Service station to Coronado. Information may differ from the station used for current weather conditions.

Click here for Long-term Archive

Time Weather Temperature Dewpoint Humidity Pressure Winds Precip Visibility
18:52
Partly Cloudy
61°F / 16°C 52°F / 11°C 72% 29.98 in
(1015 mb)
W 6.9 mph
(W 11 kph)
- 10SM
17:52
Partly Cloudy
63°F / 17°C 52°F / 11°C 68% 29.95 in
(1014 mb)
SW 6.9 mph
(SW 11 kph)
- 10SM
16:52
Partly Cloudy
63°F / 17°C 52°F / 11°C 68% 29.95 in
(1014 mb)
SW 5.8 mph
(SW 9 kph)
- 10SM
15:52
Partly Cloudy
64°F / 18°C 52°F / 11°C 64% 29.95 in
(1014 mb)
SSW 8.1 mph
(SSW 13 kph)
- 10SM
14:52
Partly Cloudy
63°F / 17°C 52°F / 11°C 68% 29.95 in
(1014 mb)
SW 11.5 mph
(SW 19 kph)
- 10SM
13:52
Partly Cloudy
64°F / 18°C 52°F / 11°C 64% 29.95 in
(1014 mb)
SSW 10.4 mph
(SSW 17 kph)
- 10SM
12:52
Partly Cloudy
66°F / 19°C 52°F / 11°C 60% 29.95 in
(1014 mb)
SSW 10.4 mph
(SSW 17 kph)
- 10SM
11:52
Partly Cloudy
64°F / 18°C 52°F / 11°C 64% 29.95 in
(1014 mb)
SW 11.5 mph
(SW 19 kph)
- 10SM
10:52
Mostly Cloudy
64°F / 18°C 54°F / 12°C 68% 29.95 in
(1014 mb)
SW 10.4 mph
(SW 17 kph)
- 10SM
09:52
Mostly Cloudy
63°F / 17°C 52°F / 11°C 68% 29.95 in
(1014 mb)
SW 9.2 mph
(SW 15 kph)
- 10SM
08:52
Overcast
61°F / 16°C 54°F / 12°C 77% 29.95 in
(1014 mb)
S 5.8 mph
(S 9 kph)
- 10SM
07:52
Mostly Cloudy
61°F / 16°C 54°F / 12°C 77% 29.95 in
(1014 mb)
S 8.1 mph
(S 13 kph)
- 9SM
06:52
Mostly Cloudy
59°F / 15°C 54°F / 12°C 82% 29.92 in
(1013 mb)
SE 8.1 mph
(SE 13 kph)
- 9SM
06:05
Mostly Cloudy
59°F / 15°C 54°F / 12°C 82% 29.92 in
(1013 mb)
SE 6.9 mph
(SE 11 kph)
- 7SM
05:52
Fair
59°F / 15°C 54°F / 12°C 82% 29.89 in
(1012 mb)
SE 6.9 mph
(SE 11 kph)
- 7SM
04:52
Fair
59°F / 15°C 54°F / 12°C 82% 29.89 in
(1012 mb)
SSE 6.9 mph
(SSE 11 kph)
- 10SM
03:52
Fair
59°F / 15°C 54°F / 12°C 82% 29.86 in
(1011 mb)
SW 8.1 mph
(SW 13 kph)
- 10SM
02:52
Fair
59°F / 15°C 54°F / 12°C 82% 29.86 in
(1011 mb)
SW 4.6 mph
(SW 7 kph)
- 10SM
01:52
Fair
57°F / 14°C 54°F / 12°C 88% 29.83 in
(1010 mb)
SSE 4.6 mph
(SSE 7 kph)
- 10SM
00:52
Fair
57°F / 14°C 54°F / 12°C 88% 29.86 in
(1011 mb)
S 4.6 mph
(S 7 kph)
- 10SM
Time Weather Temperature Dewpoint Humidity Pressure Winds Precip Visibility


Weather for websites

WeatherForYou.com, LLC is not responsible for any damages or problems caused by this service. Current weather conditions are obtained from the closest station including government and personal stations which may have varying degrees of accuracy. Weather forecasts are derived from the NOAA NDFD. Like all things, this site belongs to Jesus Christ... He just trusts us to maintain it. If you have any questions or comments email webmaster@weatherforyou.com

Copyright © 2016, WeatherForYou.com LLC. All rights reserved.